This is the latest recevied weather packets stored in our database for station/object KF4WSW-13. If no packets are shown the sender has not sent any weather packets the latest 10 day(s).
| Time | Temp. | Humidity | Pressure | Rain* | Wind** | Luminosity | Snow |
|---|---|---|---|---|---|---|---|
| 1777637963 | 25° C | 86% | 1011 hPa | 0 mm | - | 94 W/m² | - |
| 1777637660 | 25° C | 86% | 1010.8 hPa | 0 mm | - | 52 W/m² | - |
| 1777637357 | 25° C | 87% | 1011.1 hPa | 0 mm | - | 72 W/m² | - |
| 1777637054 | 25° C | 87% | 1010.8 hPa | 0 mm | - | 77 W/m² | - |
| 1777636750 | 25° C | 88% | 1010.7 hPa | 0 mm | - | 71 W/m² | - |
| 1777636446 | 25° C | 88% | 1010.8 hPa | 0 mm | - | 62 W/m² | - |
| 1777636141 | 24.44° C | 89% | 1010.7 hPa | 0 mm | - | 101 W/m² | - |
| 1777635837 | 24.44° C | 90% | 1010.6 hPa | 0 mm | - | 52 W/m² | - |
| 1777635534 | 24.44° C | 90% | 1010.5 hPa | 0 mm | - | 46 W/m² | - |
| 1777635230 | 23.89° C | 90% | 1010.4 hPa | 0 mm | - | 43 W/m² | - |
| 1777634927 | 23.89° C | 90% | 1010.5 hPa | 0 mm | - | 32 W/m² | - |
| 1777634624 | 23.89° C | 90% | 1010.3 hPa | 0 mm | - | 23 W/m² | - |
| 1777634322 | 23.89° C | 90% | 1010.3 hPa | 0 mm | - | 17 W/m² | - |
| 1777634018 | 23.89° C | 91% | 1010.5 hPa | 0 mm | - | 15 W/m² | - |
| 1777633714 | 23.89° C | 91% | 1010.2 hPa | 0 mm | - | 10 W/m² | - |
| 1777633413 | 23.89° C | 91% | 1010 hPa | 0 mm | - | 6 W/m² | - |
| 1777633110 | 23.89° C | 90% | 1010.1 hPa | 0 mm | - | 3 W/m² | - |
| 1777632806 | 23.89° C | 90% | 1009.9 hPa | 0 mm | - | 2 W/m² | - |
| 1777632502 | 23.89° C | 90% | 1010 hPa | 0 mm | - | 1 W/m² | - |
| 1777632200 | 23.89° C | 90% | 1009.7 hPa | 0 mm | - | 0 W/m² | - |
| 1777631897 | 23.89° C | 90% | 1009.7 hPa | 0 mm | - | 0 W/m² | - |
| 1777631595 | 23.89° C | 90% | 1009.7 hPa | 0 mm | - | 0 W/m² | - |
| 1777631292 | 23.89° C | 90% | 1010.1 hPa | 0 mm | - | 0 W/m² | - |
| 1777630989 | 23.89° C | 90% | 1009.6 hPa | 0 mm | - | 0 W/m² | - |
| 1777630684 | 23.89° C | 90% | 1009.5 hPa | 0 mm | - | 0 W/m² | - |
* Rain latest hour (hover to see other rain measurements)
** Current wind speed in m/s (hover to see current wind gust speed)